Location: Feigenhofen
(48.4939°N, 10.7793°E)
Time: 21:55:38
(UTC+00:00)

Cosmos 1455 - Pass Details

Date: 26 May 2022
Orbit: 492 x 515 km, 82.5° (Epoch: 24 June)

Event Time Altitude Azimuth Distance (km) Brightness Sun altitude
Rises 02:20:55 0° 334° (NNW) 2,585 6.0 -8.9°
Reaches altitude 10° 02:23:40 10° 312° (NW) 1,695 4.8 -8.5°
Maximum altitude 02:25:57 16° 274° (W) 1,366 4.0 -8.3°
Enters shadow 02:28:11 10° 236° (SW) 1,675 4.1 -8.0°
